Location: ????
(55.5675°N, 37.6272°E)
Time: 08:44:51
(UTC+00:00)

COSMOS 2428 - Pass Details

Date: 14 April 2026
Orbit: 843 x 855 km, 70.9° (Epoch: 9 May)

Event Time Altitude Azimuth Distance (km) Brightness Sun altitude
Rises 18:55:36 0° 227° (SW) 3,419 5.8 -17.4°
Reaches altitude 10° 18:58:05 10° 231° (SW) 2,486 5.1 -17.6°
Maximum altitude 19:03:44 60° 311° (NW) 982 3.3 -18.1°
Drops below altitude 10° 19:09:26 10° 31° (NNE) 2,499 5.4 -18.6°
Sets 19:11:56 0° 35° (NE) 3,438 6.1 -18.8°
